When you browse on this site, cookies collect data to enhance your experience and personalize the content and advertising you see.
Visit our Privacy Policy to learn more. By continuing to use the site, you agree to this use of cookies and data.
  • In France
  • List of Countries
  • For 7 days
  • Water Temperature
  • Satellite Maps
  • Weather Map
  • Weather Widgets
  • user-avatar
    Login

    Hourly Weather Taltal

    Today, 19 July, Friday

    Time Temperature Precipitation Wind Pressure Humidity
    00:00 +19°C° 0 mm 4 mps 758 mmHg 44%
    01:00 +19°C° 0 mm 4 mps 758 mmHg 43%
    02:00 +19°C° 0 mm 4 mps 758 mmHg 43%
    03:00 +18°C° 0 mm 4 mps 758 mmHg 43%
    04:00 +18°C° 0 mm 3 mps 757 mmHg 44%
    05:00 +19°C° 0 mm 3 mps 757 mmHg 37%
    06:00 +19°C° 0 mm 3 mps 758 mmHg 31%
    07:00 +20°C° 0 mm 3 mps 758 mmHg 25%
    08:00 +24°C° 0 mm 3 mps 758 mmHg 25%
    09:00 +27°C° 0 mm 3 mps 757 mmHg 24%
    10:00 +30°C° 0 mm 3 mps 757 mmHg 24%
    11:00 +30°C° 0 mm 3 mps 757 mmHg 26%
    12:00 +30°C° 0 mm 3 mps 756 mmHg 29%
    13:00 +29°C° 0 mm 3 mps 756 mmHg 31%
    14:00 +29°C° 0 mm 2 mps 756 mmHg 31%
    15:00 +28°C° 0 mm 2 mps 755 mmHg 30%
    16:00 +28°C° 0 mm 1 mps 755 mmHg 30%
    17:00 +25°C° 0 mm 2 mps 755 mmHg 39%
    18:00 +21°C° 0 mm 2 mps 756 mmHg 48%
    19:00 +19°C° 0 mm 3 mps 756 mmHg 57%
    20:00 +18°C° 0 mm 2 mps 756 mmHg 57%
    21:00 +18°C° 0 mm 2 mps 756 mmHg 57%
    22:00 +18°C° 0 mm 2 mps 756 mmHg 56%
    23:00 +18°C° 0 mm 2 mps 756 mmHg 54%

    Tomorrow, 20 July, Saturday

    Time Temperature Precipitation Wind Pressure Humidity
    00:00 +18°C° 0 mm 2 mps 756 mmHg 52%
    01:00 +17°C° 0 mm 2 mps 756 mmHg 50%
    02:00 +17°C° 0 mm 2 mps 756 mmHg 52%
    03:00 +16°C° 0 mm 1 mps 756 mmHg 55%
    04:00 +15°C° 0 mm 1 mps 756 mmHg 57%
    05:00 +16°C° 0 mm 2 mps 756 mmHg 53%
    06:00 +16°C° 0 mm 2 mps 756 mmHg 50%
    07:00 +17°C° 0 mm 2 mps 756 mmHg 46%
    08:00 +20°C° 0 mm 2 mps 756 mmHg 42%
    09:00 +23°C° 0 mm 2 mps 757 mmHg 38%
    10:00 +26°C° 0 mm 2 mps 757 mmHg 35%
    11:00 +26°C° 0 mm 2 mps 756 mmHg 36%
    12:00 +26°C° 0 mm 2 mps 755 mmHg 38%
    13:00 +27°C° 0 mm 2 mps 755 mmHg 39%
    14:00 +26°C° 0 mm 2 mps 755 mmHg 40%
    15:00 +25°C° 0 mm 1 mps 755 mmHg 41%
    16:00 +24°C° 0 mm 1 mps 755 mmHg 42%
    17:00 +22°C° 0 mm 1 mps 755 mmHg 50%
    18:00 +20°C° 0 mm 1 mps 756 mmHg 57%
    19:00 +17°C° 0 mm 2 mps 756 mmHg 64%
    20:00 +16°C° 0 mm 2 mps 756 mmHg 65%
    21:00 +16°C° 0 mm 2 mps 756 mmHg 66%
    22:00 +15°C° 0 mm 2 mps 757 mmHg 67%
    23:00 +15°C° 0 mm 1 mps 757 mmHg 70%

    Day after tomorrow, 21 July, Sunday

    Time Temperature Precipitation Wind Pressure Humidity
    00:00 +14°C° 0 mm 1 mps 757 mmHg 73%
    01:00 +13°C° 0 mm 1 mps 757 mmHg 75%
    02:00 +13°C° 0 mm 1 mps 757 mmHg 75%
    03:00 +12°C° 0 mm 0 mps 757 mmHg 75%
    04:00 +11°C° 0 mm 0 mps 757 mmHg 74%
    05:00 +12°C° 0 mm 0 mps 757 mmHg 71%
    06:00 +12°C° 0 mm 0 mps 758 mmHg 67%
    07:00 +13°C° 0 mm 0 mps 758 mmHg 64%
    08:00 +18°C° 0 mm 1 mps 759 mmHg 57%
    09:00 +20°C° 0 mm 1 mps 759 mmHg 50%
    10:00 +23°C° 0 mm 1 mps 759 mmHg 43%
    11:00 +23°C° 0 mm 1 mps 758 mmHg 42%
    12:00 +23°C° 0 mm 1 mps 758 mmHg 42%
    13:00 +24°C° 0 mm 1 mps 757 mmHg 41%
    14:00 +23°C° 0 mm 2 mps 757 mmHg 44%
    15:00 +21°C° 0 mm 2 mps 757 mmHg 46%
    16:00 +21°C° 0 mm 2 mps 757 mmHg 49%
    17:00 +19°C° 0 mm 2 mps 758 mmHg 55%
    18:00 +17°C° 0 mm 3 mps 758 mmHg 60%
    19:00 +14°C° 0 mm 3 mps 758 mmHg 66%
    20:00 +14°C° 0 mm 3 mps 758 mmHg 65%
    21:00 +14°C° 0 mm 3 mps 758 mmHg 65%
    22:00 +15°C° 0 mm 2 mps 758 mmHg 64%
    23:00 +15°C° 0 mm 2 mps 758 mmHg 67%

    22 July, Monday

    Time Temperature Precipitation Wind Pressure Humidity
    00:00 +14°C° 0 mm 2 mps 758 mmHg 69%
    01:00 +14°C° 0 mm 2 mps 758 mmHg 72%
    02:00 +13°C° 0 mm 2 mps 758 mmHg 73%
    03:00 +13°C° 0 mm 2 mps 758 mmHg 75%
    04:00 +12°C° 0 mm 2 mps 758 mmHg 76%
    05:00 +13°C° 0 mm 1 mps 758 mmHg 73%
    06:00 +13°C° 0 mm 1 mps 759 mmHg 71%
    07:00 +14°C° 0 mm 1 mps 759 mmHg 68%
    08:00 +16°C° 0 mm 1 mps 759 mmHg 62%
    09:00 +18°C° 0 mm 2 mps 759 mmHg 55%
    10:00 +20°C° 0 mm 2 mps 760 mmHg 48%
    11:00 +20°C° 0 mm 2 mps 759 mmHg 50%
    12:00 +20°C° 0 mm 3 mps 759 mmHg 53%
    13:00 +20°C° 0 mm 3 mps 758 mmHg 55%
    14:00 +19°C° 0 mm 3 mps 758 mmHg 58%
    15:00 +18°C° 0 mm 3 mps 758 mmHg 60%
    16:00 +17°C° 0 mm 3 mps 759 mmHg 63%
    17:00 +16°C° 0 mm 3 mps 759 mmHg 68%
    18:00 +13°C° 0 mm 3 mps 759 mmHg 73%
    19:00 +12°C° 0 mm 3 mps 759 mmHg 78%
    20:00 +12°C° 0 mm 3 mps 759 mmHg 76%
    21:00 +12°C° 0 mm 3 mps 759 mmHg 75%
    22:00 +12°C° 0 mm 3 mps 759 mmHg 73%
    23:00 +11°C° 0 mm 3 mps 759 mmHg 77%

    23 July, Tuesday

    Time Temperature Precipitation Wind Pressure Humidity
    00:00 +11°C° 0 mm 3 mps 759 mmHg 80%
    01:00 +12°C° 0 mm 2 mps 759 mmHg 83%
    02:00 +10°C° 0 mm 2 mps 759 mmHg 84%
    03:00 +10°C° 0 mm 2 mps 759 mmHg 84%
    04:00 +9°C° 0 mm 2 mps 759 mmHg 84%
    05:00 +10°C° 0 mm 2 mps 760 mmHg 82%
    06:00 +10°C° 0 mm 2 mps 760 mmHg 79%
    07:00 +12°C° 0 mm 2 mps 761 mmHg 77%
    08:00 +13°C° 0 mm 3 mps 761 mmHg 68%
    09:00 +16°C° 0 mm 3 mps 761 mmHg 60%
    10:00 +18°C° 0 mm 4 mps 761 mmHg 51%
    11:00 +18°C° 0 mm 4 mps 761 mmHg 52%
    12:00 +18°C° 0 mm 4 mps 760 mmHg 53%
    13:00 +18°C° 0 mm 4 mps 760 mmHg 54%
    14:00 +17°C° 0 mm 3 mps 760 mmHg 54%
    15:00 +17°C° 0 mm 3 mps 760 mmHg 54%
    16:00 +16°C° 0 mm 3 mps 760 mmHg 54%
    17:00 +13°C° 0 mm 3 mps 760 mmHg 63%
    18:00 +12°C° 0 mm 2 mps 760 mmHg 72%
    19:00 +8°C° 0 mm 2 mps 760 mmHg 81%
    20:00 +8°C° 0 mm 2 mps 761 mmHg 81%
    21:00 +8°C° 0 mm 2 mps 761 mmHg 82%
    22:00 +7°C° 0 mm 2 mps 761 mmHg 82%
    23:00 +7°C° 0 mm 2 mps 761 mmHg 82%

    24 July, Wednesday

    Time Temperature Precipitation Wind Pressure Humidity
    00:00 +7°C° 0 mm 1 mps 761 mmHg 82%
    01:00 +7°C° 0 mm 1 mps 761 mmHg 83%
    02:00 +7°C° 0 mm 1 mps 761 mmHg 81%
    03:00 +6°C° 0 mm 1 mps 761 mmHg 80%
    04:00 +6°C° 0 mm 1 mps 761 mmHg 79%
    05:00 +7°C° 0 mm 1 mps 761 mmHg 75%
    06:00 +8°C° 0 mm 1 mps 761 mmHg 71%
    07:00 +8°C° 0 mm 1 mps 761 mmHg 68%
    08:00 +11°C° 0 mm 1 mps 761 mmHg 58%
    09:00 +14°C° 0 mm 2 mps 761 mmHg 49%
    10:00 +16°C° 0 mm 2 mps 761 mmHg 40%
    11:00 +17°C° 0 mm 3 mps 760 mmHg 40%
    12:00 +17°C° 0 mm 3 mps 760 mmHg 40%
    13:00 +18°C° 0 mm 3 mps 760 mmHg 39%
    14:00 +17°C° 0 mm 3 mps 760 mmHg 43%
    15:00 +16°C° 0 mm 2 mps 760 mmHg 46%
    16:00 +16°C° 0 mm 2 mps 760 mmHg 49%
    17:00 +13°C° 0 mm 2 mps 760 mmHg 54%
    18:00 +10°C° 0 mm 2 mps 761 mmHg 59%
    19:00 +8°C° 0 mm 2 mps 762 mmHg 64%
    20:00 +8°C° 0 mm 2 mps 762 mmHg 61%
    21:00 +8°C° 0 mm 3 mps 762 mmHg 58%
    22:00 +8°C° 0 mm 3 mps 763 mmHg 55%
    23:00 +8°C° 0 mm 3 mps 763 mmHg 52%
    Show more